SCP
1 1 1 1 1 1 1 1 1 1 1 1 0 0 0 0 0 0 0 0 0 0 0 0 0 0 0 0 0 0 0 0 0 0 0 0 0 0 0 0 0 0 0
1 1 1 1 1 1 1 1 1 1 1 0 0 0 0 0 0 0 0 0 0 0 0 1 1 0 0 0 0 0 0 0 0 0 0 0 0 0 0 0 0 0 0
1 1 1 1 1 1 1 1 1 1 1 0 0 0 0 0 0 0 0 0 0 0 0 1 1 1 0 0 0 0 0 0 0 0 0 0 0 0 0 0 0 0 0
1 1 1 1 1 1 1 1 1 1 1 0 0 0 0 0 0 0 0 0 0 0 0 1 1 1 1 0 0 0 0 0 0 0 0 0 0 0 0 0 0 0 0
1 1 1 1 1 1 1 1 1 1 1 0 0 0 0 0 0 0 0 0 0 0 0 1 1 1 1 1 0 0 0 0 0 0 0 0 0 0 0 0 0 0 0
1 1 1 1 1 1 1 1 1 1 1 0 0 0 0 0 0 0 0 0 0 0 0 1 1 1 1 1 1 0 0 0 0 0 0 0 0 0 0 0 0 0 0
1 1 1 1 1 1 1 1 1 1 1 0 0 0 0 0 0 0 0 0 0 0 0 0 1 0 0 1 1 1 1 1 0 0 0 0 0 0 0 0 0 0 0
0 0 1 1 1 1 1 1 1 1 0 0 0 0 0 0 0 0 0 0 0 0 0 0 0 0 0 0 1 1 1 1 0 0 0 1 1 1 0 0 0 0 0
0 0 1 1 1 1 1 1 1 1 0 0 0 0 0 0 0 0 0 0 0 0 0 0 0 0 0 0 0 0 1 1 0 0 1 1 1 1 1 1 0 0 0
0 0 1 1 1 1 1 1 1 1 0 0 0 0 0 0 0 0 0 0 0 0 0 0 0 0 0 0 0 0 0 0 0 1 1 1 1 1 1 1 0 0 0
0 0 0 1 1 1 1 1 1 1 1 1 0 0 0 0 0 0 0 0 0 0 0 0 0 0 0 0 0 0 0 0 0 1 1 1 1 1 1 0 0 0 0
0 0 0 1 1 1 1 1 1 1 1 1 1 0 0 0 0 0 0 0 0 0 0 0 0 0 0 0 0 0 0 0 0 0 1 1 1 1 1 1 1 0 0
0 0 1 1 1 1 1 1 1 1 1 1 1 1 0 0 0 0 0 0 0 0 0 0 0 0 0 0 0 0 0 0 0 0 0 1 1 1 1 1 1 1 1
0 0 1 1 1 0 0 1 1 1 1 1 1 1 1 0 0 0 0 0 0 0 0 0 0 0 0 0 0 0 0 0 0 0 0 0 1 1 1 1 1 1 1
0 1 1 1 1 0 1 1 1 1 1 1 1 1 1 0 0 0 0 0 0 0 0 0 0 0 0 0 0 0 0 0 0 0 0 0 0 1 1 1 1 1 1
0 0 1 1 1 0 0 0 1 1 1 1 1 1 1 1 0 0 0 0 0 0 0 0 0 0 0 0 0 0 0 0 0 0 0 0 0 0 0 0 0 0 0
0 0 0 0 0 0 0 0 1 1 1 1 1 1 1 1 1 0 0 0 0 0 0 0 0 0 0 0 1 1 0 0 0 0 0 0 0 0 0 0 0 0 0
0 0 0 0 0 0 0 0 0 1 1 1 1 1 1 1 1 0 0 0 0 0 0 0 0 0 0 0 1 1 1 0 0 0 0 0 0 0 0 0 0 0 0
0 0 0 0 0 0 0 0 0 0 0 1 1 1 1 1 0 0 0 0 0 0 0 0 0 0 0 0 1 1 1 0 0 0 0 0 0 0 0 0 0 0 0
0 0 0 0 0 0 0 0 0 0 0 1 1 1 1 0 0 0 0 0 0 0 0 0 0 0 0 0 1 1 1 0 0 0 0 0 0 0 0 0 0 0 0
0 0 0 0 0 0 0 0 0 0 0 1 1 1 1 1 0 0 0 0 0 0 0 0 0 0 0 0 1 1 1 0 0 0 0 0 0 0 0 0 0 0 0
0 0 0 0 0 0 0 0 0 0 0 0 1 1 1 1 1 0 0 0 0 0 0 0 0 0 0 0 1 1 1 0 0 0 0 0 0 0 0 0 0 0 0
0 0 0 0 0 0 0 0 0 0 0 0 0 1 1 1 1 0 0 0 0 0 0 0 0 0 0 1 1 1 1 0 0 0 0 0 0 0 0 0 0 0 0
0 0 0 0 0 0 0 0 0 0 0 0 0 0 1 1 1 0 0 0 0 0 0 0 0 0 0 1 1 1 0 0 0 0 0 0 0 0 0 0 0 0 0
0 0 0 0 0 0 0 0 0 0 0 0 0 0 0 0 0 0 0 0 0 0 0 0 0 0 0 0 0 0 0 0 0 0 0 0 0 0 0 0 0 0 0
0 0 0 0 0 0 0 0 0 0 0 0 0 0 0 0 0 0 0 0 0 0 0 0 0 0 0 0 0 0 0 0 0 0 0 0 0 0 0 0 0 0 0
Wind_Speed
3 3 3 3 4 3 4 4 4 4 4 4 4 4 4 4 4 3 3 7 7 8 8 9 8 8 8 8 8 8 8 7 7 7 7 7 7 7 7 7 7 7 6
3 3 3 3 4 3 4 4 5 4 4 3 4 4 5 4 4 4 4 4 7 8 8 9 9 9 9 9 9 8 8 7 7 7 7 7 7 7 7 7 7 6 5
3 3 3 3 3 3 4 3 4 3 3 3 4 4 4 5 5 5 5 3 3 7 8 10 10 10 10 10 9 9 9 8 7 7 7 7 7 6 6 6 5 5 5
3 3 3 3 3 3 3 3 3 3 3 3 2 3 3 3 5 5 4 4 3 3 6 9 9 10 10 10 10 9 9 8 8 8 7 7 7 6 6 5 5 4 4
4 3 3 3 3 3 3 4 3 3 3 3 2 2 2 2 3 4 5 5 4 4 3 5 8 9 9 10 10 10 10 9 9 8 8 7 6 6 6 5 5 4 4
4 3 3 3 3 3 3 3 3 3 3 3 2 1 1 1 2 3 4 4 4 5 4 4 4 5 8 8 9 10 10 10 9 9 8 8 7 7 6 5 5 5 4
3 3 3 2 3 3 4 4 3 3 3 3 2 0 1 0 1 2 2 3 4 4 4 4 4 3 3 7 8 9 10 10 10 10 9 9 8 7 6 6 6 5 4
3 3 3 2 3 2 3 4 4 3 2 3 3 2 0 1 2 2 2 3 4 3 4 6 5 5 4 3 5 9 9 10 10 10 10 9 8 8 7 7 6 6 5
4 3 3 2 2 3 3 4 4 5 3 3 3 4 3 4 2 1 2 3 3 3 4 4 5 5 5 4 4 7 8 8 10 11 10 10 9 9 8 7 7 6 5
4 3 3 2 2 2 3 4 4 4 4 4 3 2 2 3 3 1 1 1 3 3 4 4 4 5 5 4 5 7 9 9 10 11 11 10 10 10 9 8 7 7 6
4 3 2 2 2 2 3 3 3 4 4 4 4 3 2 1 1 2 2 1 1 2 3 3 3 3 4 4 4 6 9 10 9 10 10 10 10 10 10 9 8 8 7
3 4 3 2 2 2 2 3 3 4 4 4 4 3 3 3 3 3 2 2 2 1 1 2 3 3 3 4 5 7 9 9 9 9 8 8 9 9 10 9 9 8 8
3 4 3 2 2 2 2 2 2 3 4 5 5 4 3 3 3 3 3 2 2 1 1 2 2 2 3 3 3 6 7 8 8 8 8 7 7 8 8 9 8 8 7
3 4 3 2 2 2 2 2 2 2 3 4 5 5 3 3 3 3 3 3 2 1 1 2 1 2 2 3 4 6 4 7 7 7 7 6 6 6 6 6 6 6 6
4 5 4 3 3 2 2 1 1 2 2 3 3 4 3 3 3 3 3 3 4 3 3 3 2 2 3 3 4 4 3 6 6 6 6 6 6 5 5 5 5 4 4
5 6 5 4 3 3 2 1 1 1 2 2 2 3 3 2 3 3 3 3 3 3 3 2 2 1 2 3 5 4 4 6 6 6 6 7 7 6 6 5 5 5 5
6 5 5 5 4 3 2 1 1 1 1 1 1 2 3 2 3 3 3 3 3 3 3 1 1 1 2 3 3 3 3 4 4 6 6 7 7 7 6 6 6 6 5
6 6 5 5 4 4 3 1 1 0 1 2 2 2 2 3 3 3 3 4 3 3 3 3 1 1 2 3 3 4 3 4 4 6 7 7 7 7 7 7 7 6 6
6 6 6 5 4 4 3 2 1 0 0 2 2 3 3 3 3 3 4 4 3 3 3 3 2 1 2 2 3 4 5 4 4 6 7 7 8 8 8 8 7 7 6
6 7 6 5 5 4 4 3 2 1 1 1 1 1 2 3 3 3 4 4 4 4 4 4 3 2 2 3 4 4 4 3 4 5 6 7 9 10 9 9 8 7 7
7 6 7 7 6 4 4 4 3 2 2 2 2 1 1 1 2 3 3 4 5 4 4 4 4 3 3 4 4 3 5 5 4 3 5 5 5 5 5 7 7 8 8
7 7 7 7 7 6 8 8 5 3 2 2 2 2 1 1 1 2 3 4 6 6 6 4 3 4 4 4 4 5 5 5 3 3 4 4 4 5 4 4 6 9 9
7 7 7 7 7 7 9 10 10 5 4 3 2 2 2 3 3 3 4 4 3 4 5 5 5 4 5 5 6 6 5 4 4 5 4 4 3 4 3 4 9 9 9
5 5 6 7 7 8 12 11 10 6 5 4 4 3 3 3 2 3 4 4 4 3 2 3 4 4 4 5 6 6 6 6 6 3 3 4 3 3 3 3 7 8 8
5 5 5 7 7 8 12 11 9 4 5 5 5 4 4 3 5 6 5 5 5 4 5 7 7 7 9 9 9 7 7 7 5 2 2 4 3 3 2 2 4 7 7
3 4 5 6 6 7 11 12 9 4 4 4 5 5 7 6 6 6 4 4 5 4 4 6 7 7 6 7 8 6 7 7 5 3 2 3 4 3 3 1 1 2 3
Wind_Direction
254 243 236 234 232 224 220 214 207 206 207 208 213 220 228 230 230 227 233 237 229 218 207 195 186 178 172 167 161 156 151 149 146 146 147 144 139 136 133 130 127 125 124
255 248 243 237 232 225 222 216 212 208 208 203 216 219 227 228 227 221 217 233 230 220 213 204 195 188 182 177 171 167 163 162 159 154 150 145 142 138 137 137 135 131 131
252 249 243 239 232 222 219 214 211 198 206 207 217 221 222 225 221 216 209 207 219 222 214 208 202 196 191 186 181 176 172 169 167 163 156 151 147 146 147 145 143 140 134
259 251 246 243 233 222 212 207 200 193 206 205 210 221 221 220 218 212 203 200 199 208 216 213 205 201 198 193 189 183 179 176 174 172 167 161 159 157 155 154 154 153 149
269 251 247 249 236 224 217 219 202 187 204 206 207 215 221 224 219 213 203 201 198 196 198 215 211 203 201 200 197 191 187 185 181 176 172 170 170 171 169 168 169 169 165
277 261 247 245 232 220 217 210 198 190 198 192 206 207 213 233 217 215 210 201 198 200 196 198 203 210 207 203 203 200 196 191 187 185 182 182 184 183 182 179 178 176 171
286 267 262 246 228 221 219 208 187 187 194 158 136 104 352 308 227 222 206 200 204 202 193 195 190 191 205 207 204 205 204 199 195 194 193 191 188 186 186 188 186 185 182
299 280 253 244 230 225 217 203 182 169 183 167 152 132 184 299 268 226 197 208 209 191 199 204 193 192 193 189 204 205 207 206 204 202 199 195 191 192 192 191 194 196 195
305 292 270 246 233 217 217 209 196 181 185 188 176 158 164 206 223 259 216 210 201 195 202 197 199 197 195 192 196 208 208 207 211 208 204 201 197 196 197 199 199 201 204
314 309 301 281 252 233 225 218 205 193 181 185 187 188 164 160 166 193 253 207 194 200 200 203 202 198 196 193 199 203 208 207 213 214 211 207 202 201 203 204 206 209 210
323 322 316 307 278 249 236 226 208 194 189 184 177 168 162 165 167 156 198 208 204 210 199 199 195 195 196 195 198 207 208 206 210 216 216 212 208 206 206 207 209 212 215
327 334 326 317 294 269 247 232 213 201 200 191 181 174 167 173 182 171 179 190 206 218 195 191 199 200 194 192 205 206 205 203 206 210 213 211 210 210 210 208 211 214 216
329 327 329 318 297 278 263 242 215 210 200 197 192 189 190 195 168 163 162 167 175 205 200 206 207 199 195 185 200 202 203 197 200 204 204 203 206 209 212 213 213 213 209
316 320 324 318 305 291 274 243 223 215 202 200 200 190 191 195 183 178 168 159 158 189 216 222 195 198 193 180 189 188 195 190 190 193 190 189 195 197 197 201 203 198 198
333 342 340 337 327 313 291 246 228 222 204 201 198 191 191 191 184 185 178 173 166 178 212 213 200 197 189 175 177 176 174 181 179 181 177 172 171 170 172 179 179 172 168
344 343 343 341 337 336 327 281 235 231 200 199 189 182 186 189 184 181 184 181 182 174 191 197 199 178 171 176 170 164 161 158 158 161 161 160 156 153 158 163 156 148 145
346 344 341 339 338 335 328 303 251 241 206 196 192 183 190 185 186 184 180 178 185 171 174 176 164 138 147 154 148 144 139 135 136 143 144 145 144 142 142 141 139 138 136
346 346 345 343 343 340 335 335 279 223 202 196 192 182 194 191 192 188 184 185 184 173 161 166 161 150 145 149 142 136 130 131 126 133 131 128 130 131 132 128 125 125 128
352 354 356 357 353 349 351 352 351 58 233 204 187 185 193 187 199 199 188 185 181 177 161 159 158 142 128 132 129 120 116 112 121 122 120 118 121 122 123 120 120 118 123
1 359 358 358 359 360 4 9 24 48 33 26 166 192 201 198 202 197 192 189 181 173 162 155 152 147 140 138 138 135 126 109 105 103 97 96 102 102 106 108 110 110 112
7 1 4 5 3 3 12 16 30 49 45 38 32 14 255 222 215 198 186 182 177 169 160 160 161 156 158 159 155 142 133 120 97 103 103 91 92 85 84 94 102 105 105
7 11 11 8 8 8 18 35 47 47 48 40 21 3 6 44 79 132 153 162 171 169 168 165 168 170 167 155 142 145 141 140 129 125 112 96 89 87 77 80 94 100 102
10 13 11 11 6 2 27 43 46 47 41 32 27 26 35 45 60 78 86 98 111 137 160 162 165 171 164 160 151 150 148 133 126 140 121 101 90 87 71 82 93 95 100
8 9 9 7 11 16 31 41 42 44 45 36 30 34 48 39 66 89 90 80 71 71 127 151 153 158 151 149 151 143 133 112 96 95 102 108 106 91 73 64 85 92 94
10 10 8 11 12 9 23 34 36 35 40 31 26 32 44 52 72 89 96 95 82 65 75 99 110 118 125 130 136 132 134 132 123 111 85 112 124 106 81 59 61 76 83
5 8 14 12 12 8 14 27 31 37 39 30 26 26 36 49 65 76 89 100 93 75 81 85 85 86 99 114 123 141 148 144 132 133 140 119 136 135 121 80 56 56 69